Aghushkash, Iran

1:41 AM IRST on December 07, 2016 (GMT +0330)
Jask

Weather History for OIZJ - February, 2013

Change the Weather History Date:

Friday, February 1, 2013

  Actual Average Record
Temperature  
Mean Temperature 72 °F -  
Max Temperature 75 °F - - ()
Min Temperature 69 °F - - ()
Cooling Degree Days 7    
Growing Degree Days 22 (Base 50)    
Moisture  
Dew Point 68 °F    
Average Humidity 82    
Maximum Humidity 94    
Minimum Humidity 73    
Precipitation  
Precipitation 0.00 in - - ()
Sea Level Pressure  
Sea Level Pressure 29.91 in    
Wind  
Wind Speed 19 mph ()    
Max Wind Speed 28 mph    
Max Gust Speed -    
Visibility 3.9 miles    
Events      
T = Trace of Precipitation, MM = Missing Value Source: Averaged Metar Reports

Daily Weather History Graph

Daily Weather History Graph

Search for Another Location

Airport or City:

Trip Planner

Search our weather history database for the weather conditions in past years. The results will help you decide how hot, cold, wet, or windy it might be!

Date:

Astronomy

Feb. 01, 2013 Rise Set
Actual Time 6:22 AM IRST 5:22 PM IRST
Civil Twilight 5:58 AM IRST 5:46 PM IRST
Nautical Twilight 5:30 AM IRST 6:14 PM IRST
Astronomical Twilight 5:03 AM IRST 6:41 PM IRST
Moon 10:22 PM IRST (2/1) 9:18 AM IRST (2/1)
Length of Visible Light 11h 48m
Length of Day
11h 00m
Waning Gibbous, 74% of the Moon is Illuminated
Feb 1
Waning Gibbous
Feb 3
Last Quarter
Feb 10
New
Feb 18
First Quarter
Feb 25
Full

Hourly Weather History & Observations

Time (IRST) Temp. Dew Point Humidity Pressure Visibility Wind Dir Wind Speed Gust Speed Precip Events Conditions
12:20 AM 71.6 °F 68.0 °F 88% 29.92 in 3.7 mi East 16.1 mph - N/A   Mostly Cloudy
12:30 AM 71.6 °F 68.0 °F 88% 29.92 in 3.7 mi East 16.1 mph - N/A   Mostly Cloudy
3:30 AM 71 °F 67 °F 82% 29.93 in 4 mi East 17.9 mph - -   Mist
3:30 AM 69.8 °F 66.2 °F 88% 29.92 in 3.7 mi East 18.4 mph - N/A   Mostly Cloudy
5:20 AM 69.8 °F 68.0 °F 94% 29.86 in 3.7 mi East 27.6 mph - N/A   Partly Cloudy
5:30 AM 69.8 °F 68.0 °F 94% 29.86 in 3.7 mi East 27.6 mph - N/A   Partly Cloudy
7:20 AM 69.8 °F 68.0 °F 94% 29.89 in 3.7 mi East 21.9 mph - N/A   Partly Cloudy
7:30 AM 69.8 °F 68.0 °F 94% 29.89 in 3.7 mi East 21.9 mph - N/A   Partly Cloudy
8:20 AM 71.6 °F 68.0 °F 88% 29.95 in 3.7 mi East 20.7 mph - N/A   Partly Cloudy
8:30 AM 71.6 °F 68.0 °F 88% 29.95 in 3.7 mi East 20.7 mph - N/A   Partly Cloudy
9:20 AM 73.4 °F 68.0 °F 83% 29.95 in 3.7 mi East 18.4 mph - N/A   Mostly Cloudy
9:30 AM 74 °F 67 °F 73% 29.96 in 4 mi East 17.9 mph - -   Mist
9:30 AM 73.4 °F 68.0 °F 83% 29.95 in 3.7 mi East 18.4 mph - N/A   Mostly Cloudy
10:20 AM 75.2 °F 68.0 °F 78% 29.95 in 3.7 mi East 18.4 mph - N/A   Scattered Clouds
10:30 AM 75.2 °F 68.0 °F 78% 29.95 in 3.7 mi East 18.4 mph - N/A   Scattered Clouds
11:20 AM 75.2 °F 68.0 °F 78% 29.95 in 5.0 mi ESE 20.7 mph - N/A   Scattered Clouds
11:30 AM 75.2 °F 68.0 °F 78% 29.95 in 5.0 mi ESE 20.7 mph - N/A   Scattered Clouds
12:20 PM 75.2 °F 68.0 °F 78% 29.92 in 5.0 mi ESE 21.9 mph - N/A   Scattered Clouds
12:30 PM 75.2 °F 68.0 °F 78% 29.92 in 5.0 mi ESE 21.9 mph - N/A   Scattered Clouds
1:20 PM 75.2 °F 68.0 °F 78% 29.86 in 3.7 mi ESE 24.2 mph - N/A   Unknown
1:30 PM 75.2 °F 68.0 °F 78% 29.86 in 3.7 mi ESE 24.2 mph - N/A   Unknown
2:20 PM 75.2 °F 68.0 °F 78% 29.86 in 3.7 mi ESE 21.9 mph - N/A   Unknown
2:30 PM 75.2 °F 68.0 °F 78% 29.86 in 3.7 mi ESE 21.9 mph - N/A   Unknown
3:20 PM 75.2 °F 68.0 °F 78% 29.86 in 3.7 mi ESE 20.7 mph - N/A   Unknown
3:30 PM 74 °F 68 °F 78% 29.89 in 4 mi ESE 20.1 mph - -   Mist
3:30 PM 75.2 °F 68.0 °F 78% 29.86 in 3.7 mi ESE 20.7 mph - N/A   Unknown
4:20 PM 73.4 °F 68.0 °F 83% 29.89 in 4.3 mi ESE 24.2 mph - N/A   Mostly Cloudy
4:30 PM 73.4 °F 68.0 °F 83% 29.89 in 4.3 mi ESE 24.2 mph - N/A   Mostly Cloudy
5:20 PM 73.4 °F 68.0 °F 83% 29.89 in 4.3 mi ESE 26.5 mph - N/A   Mostly Cloudy
5:30 PM 73.4 °F 68.0 °F 83% 29.89 in 4.3 mi ESE 26.5 mph - N/A   Mostly Cloudy
6:20 PM 73.4 °F 68.0 °F 83% 29.92 in 3.7 mi ESE 24.2 mph - N/A   Mostly Cloudy
6:30 PM 73.4 °F 68.0 °F 83% 29.92 in 3.7 mi ESE 24.2 mph - N/A   Mostly Cloudy
7:20 PM 73.4 °F 68.0 °F 83% 29.92 in 3.7 mi ESE 24.2 mph - N/A   Partly Cloudy
7:30 PM 73.4 °F 68.0 °F 83% 29.92 in 3.7 mi ESE 24.2 mph - N/A   Partly Cloudy
8:20 PM 73.4 °F 66.2 °F 78% 29.95 in 3.7 mi ESE 25.3 mph - N/A   Partly Cloudy
8:30 PM 73.4 °F 66.2 °F 78% 29.95 in 3.7 mi ESE 25.3 mph - N/A   Partly Cloudy
9:20 PM 73.4 °F 68.0 °F 83% 29.95 in 3.7 mi SE 26.5 mph - N/A   Scattered Clouds
9:30 PM 74 °F 68 °F 77% 29.96 in 4 mi SE 26.8 mph - -   Mist
9:30 PM 73.4 °F 68.0 °F 83% 29.95 in 3.7 mi SE 26.5 mph - N/A   Scattered Clouds